This demonstration page uses our WeatherBlox Daily Observations layout. Learn more.

Left ArrowRight Arrow

Hourly Observations for January 28, 2016

Temp ( °F °C ) Dew Point ( °F °C ) Humidity (%) Winds ( mph kmh ) Pressure ( in mb ) Visibility ( mi km ) Precip ( " mm )
12:53 am 00:53 Clear 37 2.8 28 -2.2 70 70 W 12 19 30.05 1018 10 16 0.00 0.00
1:53 am 01:53 Clear 35 1.7 28 -2.2 76 76 W 10 17 30.03 1017 10 16 0.00 0.00
2:53 am 02:53 Clear 34 1.1 28 -2.2 79 79 W 10 17 30.02 1017 10 16 0.00 0.00
3:53 am 03:53 Clear 34 1.1 27 -2.8 76 76 W 9 15 30.02 1017 10 16 0.00 0.00
4:53 am 04:53 Clear 34 1.1 27 -2.8 76 76 W 13 20 30.00 1016 10 16 0.00 0.00
5:53 am 05:53 Clear 33 0.6 27 -2.8 78 78 W 12 19 30.02 1017 10 16 0.00 0.00
6:53 am 06:53 Clear 32 0 26 -3.3 79 79 W 10 17 30.03 1017 10 16 0.00 0.00
7:53 am 07:53 Sunny 32 0 27 -2.8 82 82 W 10 17 30.03 1017 10 16 0.00 0.00
8:53 am 08:53 Sunny 34 1.1 28 -2.2 79 79 W 9 15 30.04 1017 10 16 0.00 0.00
9:53 am 09:53 Sunny 39 3.9 30 -1.1 70 70 W 13 20 30.05 1018 10 16 0.00 0.00
10:53 am 10:53 Sunny 43 6.1 33 0.6 68 68 WNW 12 19 30.04 1017 10 16 0.00 0.00
11:53 am 11:53 Sunny 46 7.8 32 0 58 58 NW 12 19 30.04 1017 10 16 0.00 0.00
12:53 pm 12:53 Sunny 48 8.9 32 0 54 54 NW 13 20 30.01 1016 10 16 0.00 0.00
1:53 pm 13:53 Sunny 47 8.3 32 0 56 56 NNW 10 17 29.99 1016 10 16 0.00 0.00
2:53 pm 14:53 Sunny 49 9.4 35 1.7 59 59 NW 7 11 29.97 1015 10 16 0.00 0.00
3:53 pm 15:53 Sunny 49 9.4 33 0.6 55 55 N 3 6 29.97 1015 10 16 0.00 0.00
4:53 pm 16:53 Sunny 49 9.4 33 0.6 55 55 Calm 29.96 1015 10 16 0.00 0.00
5:53 pm 17:53 Clear 44 6.7 31 -0.6 60 60 Calm 29.96 1014 10 16 0.00 0.00
6:53 pm 18:53 Clear 43 6.1 31 -0.6 63 63 S 3 6 29.96 1014 10 16 0.00 0.00
7:53 pm 19:53 Clear 39 3.9 31 -0.6 73 73 SSE 6 9 29.95 1014 10 16 0.00 0.00
8:53 pm 20:53 Clear 37 2.8 30 -1.1 76 76 S 6 9 29.94 1014 10 16 0.00 0.00
9:53 pm 21:53 Clear 37 2.8 30 -1.1 76 76 S 8 13 29.92 1013 10 16 0.00 0.00
10:53 pm 22:53 Clear 36 2.2 30 -1.1 79 79 S 6 9 29.90 1012 10 16 0.00 0.00
11:53 pm 23:53 Clear 35 1.7 29 -1.7 78 78 S 6 9 29.87 1012 10 16 0.00 0.00

Powered by AerisWeather